Regional Weather Roundup
Issued by NWS

Home | Current Version | Previous Version | Graphics & Text | Print | Product List | Glossary On
Versions: 1 2 3 4 5 6 7 8 9 10 11 12 13 14 15 16 17 18 19 20 21 22 23 24 25 26 27 28 29 30 31 32 33 34 35 36 37 38 39 40 41 42 43 44 45 46 47 48 49 50
000
ASUS43 KDMX 270901
RWRIA

WEATHER ROUNDUP FOR IOWA
NATIONAL WEATHER SERVICE DES MOINES IA
400 AM CDT MON MAR 27 2017

NOTE: "FAIR" INDICATES FEW OR NO CLOUDS BELOW 12,000 FEET WITH NO
SIGNIFICANT WEATHER AND/OR OBSTRUCTIONS TO VISIBILITY.

* - THESE STATIONS ARE NOT NWS STATIONS...THUS NOT UNDER NWS
QUALITY CONTROL.  THEY ALSO DO NOT REPORT WEATHER SUCH
AS PRECIPITATION OR FOG.

IAZ001>003-012>014-020>022-031>034-043>046-271000-
   NORTHWEST IOWA

CITY           SKY/WX    TMP DP  RH WIND       PRES   REMARKS
CARROLL *      CLOUDY    37  37 100 NW3       29.93S FOG
CHEROKEE *     CLOUDY    40  40  99 N5        29.95F
LE MARS *      CLOUDY    43  41  93 CALM      29.96F
ORANGE CITY *  CLOUDY    41  39  93 N3        29.95S
SHELDON *      CLOUDY    39  39 100 NW5       29.94S
SIOUX CITY     CLOUDY    43  40  89 N3        29.95F
SPENCER        CLOUDY    39  38  96 N3        29.95S
STORM LAKE *   CLOUDY    39  39 100 NW8       29.94S WCI  34
$$

IAZ055>058-069>071-079>083-090>094-271000-
   SOUTHWEST IOWA

CITY           SKY/WX    TMP DP  RH WIND       PRES   REMARKS
ATLANTIC *     CLOUDY    43  43 100 NE6       29.93S
AUDUBON *      CLOUDY    43  39  87 NE3       29.94S FOG
CLARINDA *     CLOUDY    45  45 100 N6        29.94S
COUNCIL BLFS *   N/A     45  45 100 CALM      29.93F
CRESTON *      CLOUDY    43  43 100 NE7       29.92S
HARLAN  *      CLOUDY    43  43 100 NE5       29.97R
LAMONI         CLOUDY    45  43  93 NE5       29.89F
RED OAK *      CLOUDY    45  43  93 CALM      29.93S
SHENANDOAH *   CLOUDY    45  43  93 N7        29.93S
$$

IAZ047>049-059>061-072>074-084-271000-
   CENTRAL IOWA

CITY           SKY/WX    TMP DP  RH WIND       PRES   REMARKS
AMES           CLOUDY    42  42 100 N7        29.93R
ANKENY *       CLOUDY    43  43 100 N6        29.93S FOG
BOONE *        CLOUDY    41  41 100 NW6       29.92S
CHARITON *     CLOUDY    45  45 100 CALM      29.90F FOG
DES MOINES     FOG       45  43  93 N7        29.91F VSB 1
GRINNELL*      CLOUDY    43  42  97 N5        29.91F FOG
MARSHALLTOWN   FOG       43  43 100 N6        29.91S VSB 3/4
NEWTON *       FOG       43  43 100 N7        29.90F VSB 1/2
PELLA *        LGT RAIN  44  43  98 CALM      29.92S
PERRY *        MOCLDY    41  40  96 NW5       29.93S
$$

IAZ004>006-015-016-023>025-035-036-271000-
   NORTH CENTRAL IOWA

CITY           SKY/WX    TMP DP  RH WIND       PRES   REMARKS
ALGONA *       CLOUDY    39  39 100 NW6       29.94R WCI  35
CLARION *      CLOUDY    39  39 100 NW7       29.93S WCI  34
ESTHERVILLE    CLOUDY    38  38 100 NW8       29.95R WCI  32
FORT DODGE *   CLOUDY    39  36  87 N5        29.93F
MASON CITY     CLOUDY    39  38  96 NW6       29.93S FOG     WCI  35
FOREST CITY *  CLOUDY    37  37 100 NW5       29.93R FOG     WCI  34
WEBSTER CITY * CLOUDY    39  39 100 NW6       29.91R WCI  35
IOWA FALLS *   CLOUDY    42  41  95 N3        29.93R FOG
$$

IAZ007>011-017>019-026>030-037>042-050>054-066-271000-
   NORTHEAST IOWA

CITY           SKY/WX    TMP DP  RH WIND       PRES   REMARKS
CEDAR RAPIDS   CLOUDY    44  44 100 W5        29.90F
CHARLES CITY * CLOUDY    41  41 100 CALM      29.92S FOG
CLINTON *      CLOUDY    46  45  96 NW5       29.91F FOG
DECORAH *      CLOUDY    39  39 100 CALM      29.90R FOG
DUBUQUE        CLOUDY    43  42  97 CALM      29.90S FOG
MONTICELLO *   CLOUDY    45  45 100 CALM      29.91S FOG
OELWEIN *      CLOUDY    41  41 100 N5        29.92S
WATERLOO       CLOUDY    42  39  89 N5        29.92S
$$

IAZ064-065-067-068-078-271000-
   EAST CENTRAL IOWA

CITY           SKY/WX    TMP DP  RH WIND       PRES   REMARKS
DAVENPORT      FOG       46  46 100 W6        29.91F VSB 3/4
IOWA CITY      CLOUDY    47  45  93 W3        29.91F
MUSCATINE *    CLOUDY    46  46 100 CALM      29.91F FOG
QUAD CITIES    CLOUDY    48  45  89 SW5       29.91F FOG
$$

IAZ062-063-075>077-085>089-095>099-271000-
   SOUTHEAST IOWA

CITY           SKY/WX    TMP DP  RH WIND       PRES   REMARKS
BURLINGTON     CLOUDY    47  47 100 N3        29.89F FOG
FAIRFIELD *    CLOUDY    46  46 100 CALM      29.90F FOG
FORT MADISON * CLOUDY    48  46  93 CALM      29.90F FOG
KEOKUK *       CLOUDY    46  45  93 CALM      29.88F
OSKALOOSA *    CLOUDY    44  43  98 CALM      29.91F FOG
OTTUMWA        CLOUDY    46  46 100 CALM      29.90F FOG
WASHINGTON *   CLOUDY    46  45  93 CALM      29.92F FOG
$$

ABBREVIATIONS USED IN REMARKS
   TC - TEMPERATURES IN CELSIUS
  WCI - WIND CHILL INDEX
   HX - HEAT INDEX
  VSB - VISIBILITY
$$





USA.gov is the U.S. government's official web portal to all federal, state and local government web resources and services.